Have a Safe July 4th! 

Flight Track Log - Related Links

Times and Time Zones

All times are in EDT time to prevent confusion due to time zone crossing. See the SWA22 flight status page for this flight to view local times or setup timezone preferences in your user account.

Time Position Orientation Groundspeed Altitude Reporting Facility
EDT Latitude Longitude Course Direction KTS MPH feet Rate Location/Type
Wed 12:39:44 PM 29.6872 -95.2372 41° Northeast 268 308 2,900  Level Houston Center
Wed 12:40:10 PM 29.7200 -95.2458 347° North 269 310 3,500 2,694 Climbing Houston Center
Wed 12:40:33 PM 29.7544 -95.2578 343° North 305 351 5,100 3,333 Climbing Houston Center
Wed 12:41:13 PM 29.7989 -95.2717 345° North 286 329 7,000 2,882 Climbing Houston Center
Wed 12:42:15 PM 29.8797 -95.3017 342° North 302 348 10,000 2,468 Climbing Houston Center
Wed 12:43:17 PM 29.9678 -95.3361 341° North 336 387 12,100 2,274 Climbing Houston Center
Wed 12:44:19 PM 30.0661 -95.3606 348° North 359 413 14,700 2,855 Climbing Houston Center
Wed 12:45:21 PM 30.1897 -95.3917 348° North 375 432 18,000 2,468 Climbing Houston Center
Wed 12:46:23 PM 30.2925 -95.4164 348° North 376 433 19,800 1,790 Climbing Houston Center
Wed 12:47:25 PM 30.4025 -95.4444 348° North 398 458 21,700 1,694 Climbing Houston Center
Wed 12:48:27 PM 30.5108 -95.4894 340° North 412 474 23,300 1,597 Climbing Houston Center
Wed 12:49:29 PM 30.6222 -95.5375 340° North 425 489 25,000 1,645 Climbing Houston Center
Wed 12:50:31 PM 30.7506 -95.5936 339° North 432 497 26,700 1,452 Climbing Houston Center
Wed 12:51:33 PM 30.8683 -95.6442 340° North 446 513 28,000 1,403 Climbing Houston Center
Wed 12:52:35 PM 30.9867 -95.6942 340° North 447 514 29,600 968 Climbing Houston Center
Wed 12:53:37 PM 31.1031 -95.7439 340° North 443 510 30,000 194 Climbing Houston Center
Wed 12:54:39 PM 31.2186 -95.7942 340° North 440 506 30,000 -246 Level Houston Center
Wed 12:55:39 PM 31.3392 -95.8444 340° North 437 503 29,500 -750 Descending Fort Worth Center
Wed 12:56:39 PM 31.4567 -95.8936 340° North 432 497 28,500 -900 Descending Fort Worth Center
Wed 12:57:39 PM 31.5722 -95.9456 339° North 432 497 27,700 -1,800 Descending Fort Worth Center
Wed 12:58:39 PM 31.6878 -95.9972 339° North 441 507 24,900 -2,700 Descending Fort Worth Center
Wed 12:59:39 PM 31.8031 -96.0469 340° North 441 507 22,300 -2,600 Descending Fort Worth Center
Wed 01:00:39 PM 31.9267 -96.1039 339° North 429 494 19,700 -2,450 Descending Fort Worth Center
Wed 01:01:39 PM 32.0192 -96.1467 339° North 416 479 17,400 -2,600 Descending Fort Worth Center
Wed 01:02:39 PM 32.1344 -96.1964 340° North 400 460 14,500 -2,550 Descending Fort Worth Center
Wed 01:03:39 PM 32.2308 -96.2469 336° Northwest 387 445 12,300 -2,000 Descending Fort Worth Center
Wed 01:04:39 PM 32.3233 -96.3022 333° Northwest 374 430 10,500 -1,550 Descending Fort Worth Center
Wed 01:05:39 PM 32.4050 -96.3503 334° Northwest 349 402 9,200 -750 Descending Fort Worth Center
Wed 01:06:39 PM 32.4786 -96.3964 332° Northwest 327 376 9,000 -450 Descending Fort Worth Center
Wed 01:07:39 PM 32.5625 -96.4472 333° Northwest 319 367 8,300 -850 Descending Fort Worth Center
Wed 01:08:39 PM 32.6317 -96.4883 333° Northwest 307 353 7,300 -1,400 Descending Fort Worth Center
Wed 01:09:39 PM 32.7114 -96.5467 328° Northwest 307 353 5,500 -1,150 Descending Fort Worth Center
Wed 01:10:39 PM 32.7703 -96.6031 321° Northwest 302 348 5,000 -650 Descending Fort Worth Center
Wed 01:11:39 PM 32.8417 -96.6692 322° Northwest 297 342 4,200 -800 Descending Fort Worth Center
Wed 01:11:54 PM 32.8500 -96.6833 305° West 284 327 4,000 -560 Descending Dallas / Fort Worth TRACON
Wed 01:12:54 PM 32.9167 -96.7500 320° Northwest 275 316 3,500 -500 Descending Dallas / Fort Worth TRACON
Wed 01:13:54 PM 32.9333 -96.8167 287° West 233 268 3,000 -500 Descending Dallas / Fort Worth TRACON
Wed 01:14:54 PM 32.9333 -96.8833 270° West 194 223 2,500 -574 Descending Dallas / Fort Worth TRACON
Wed 01:15:49 PM 32.9000 -96.9000 203° Southwest 146 168 1,900 -793 Descending Dallas / Fort Worth TRACON
Wed 01:16:55 PM 32.8667 -96.8833 157° South 133 153 900 -909 Descending Dallas / Fort Worth TRACON
Wed 01:20:00 PM 32.8471 -96.8518 90° East  Level Estimated

Login

Don't have an account? Register now (free) for customized features, flight alerts, and more!